Retour au catalogue

STARLINK-30579

ActifCommunicationsVLEO
NORAD 58061·PAYLOAD·🇺🇸 United States

Lancé Oct 13, 2023 depuis Cape Canaveral Space Force Station

Loading…

Prochains Passages (prochaines 24 heures)

TLE

FraisSource: CelesTrak SupGP

Époque: Sep 14, 2026, 21:09 UTC

1 58061C 23158L   26257.88173611 -.00014817  00000+0 -53640-3 0  2576
2 58061  43.0040  12.7936 0001807 273.6179 321.8989 15.27601518    19

Suivez STARLINK-30579 en temps réel avec AllMySat

Download on the App Store